[[{"header":{"parameterUnit":"m.s-1","parameterCategory":1,"la1":30.2991,"la2":30.254,"lo1":-89.0895,"lo2":-89.0444,"dy":0.0017,"dx":0.0017,"nx":28,"ny":28,"refTime":"2025-12-14T09:00:00:Z","depth":0,"parameterNumber":2,"parameterNumberName":"U-component_of_WINDS"},"data":[0,0,0,0,0,0,0,0,0,0,0,0,0,0,0,0,0,0,0,0,0,0,0,0,0,0,0,0,0,0,0,0,0,0,0,0,0,0,0,0,0,0,0,0,0,0,0,0,0,0,0,0,0,0,0,0,0,0,-3.4815,-3.4816,0,-3.4903,-3.4904,-3.4905,-3.4822,-3.4819,-3.4815,-3.4812,-3.4903,-3.4908,-3.4914,0,0,0,0,0,0,0,0,0,0,0,0,0,-3.4576,-3.4581,-3.4815,-3.4816,-3.4817,-3.4903,-3.4904,-3.4905,-3.4822,-3.4818,-3.4814,-3.4811,-3.4901,-3.4908,-3.4914,0,0,0,0,0,0,0,0,0,0,0,0,0,-3.4674,-3.4583,-3.4815,-3.4786,-3.4785,-3.4902,-3.4904,-3.4905,-3.4823,-3.4818,-3.4813,-3.4809,-3.4899,-3.4907,-3.4915,-3.5066,0,0,-3.494,-3.4944,0,0,0,0,0,0,0,0,-3.4668,-3.4682,-3.479,-3.4789,-3.4787,-3.4846,-3.4853,-3.4959,-3.4825,-3.4809,-3.4812,-3.4806,-3.4888,-3.4897,-3.4924,-3.507,-3.5074,-3.4941,-3.4946,-3.495,-3.4952,0,0,0,0,0,0,0,-3.4662,-3.4678,-3.485,-3.4791,-3.479,-3.4769,-3.4777,-3.4873,-3.4875,-3.481,-3.4804,-3.4815,-3.4887,-3.4917,-3.4926,-3.5075,-3.4941,-3.4948,-3.4953,-3.4957,-3.5348,-3.5353,0,0,0,0,0,0,-3.4658,-3.4673,-3.4847,-3.4853,-3.4714,-3.4777,-3.4787,-3.4832,-3.4874,-3.4876,-3.482,-3.4811,-3.4905,-3.4916,-3.4929,-3.5108,-3.495,-3.4957,-3.4962,-3.5343,-3.5349,-3.5355,0,0,0,0,0,0,-3.4653,-3.4674,-3.4844,-3.4761,-3.4781,-3.4787,-3.4839,-3.4837,-3.4867,-3.4881,-3.4882,-3.485,-3.4902,-3.4917,-3.5032,-3.511,-3.4961,-3.4969,-3.5336,-3.5345,-3.5352,-3.5468,0,0,0,0,0,0,-3.4646,-3.4673,-3.4731,-3.4763,-3.4786,-3.4946,-3.4843,-3.4842,-3.4881,-3.4871,-3.491,-3.4912,-3.4899,-3.502,-3.504,-3.5119,-3.4975,-3.5329,-3.534,-3.5349,-3.5457,-3.5479,-3.5498,0,0,0,0,0,-3.4638,-3.476,-3.4734,-3.4755,-3.4858,-3.4951,-3.4964,-3.4946,-3.4888,-3.4946,-3.4955,-3.491,-3.5098,-3.5033,-3.5055,-3.5137,-3.5324,-3.5337,-3.5349,-3.5448,-3.5475,-3.5497,0,0,0,0,0,0,-3.4737,-3.4764,-3.4735,-3.4871,-3.4909,-3.4937,-3.5009,-3.4975,-3.5031,-3.5019,-3.4995,-3.5004,-3.5126,-3.5142,-3.5069,-3.5284,-3.5201,-3.5219,-3.527,-3.5295,-3.5315,-3.5309,-3.4982,0,0,0,0,0,-3.4775,-3.4848,-3.4867,-3.4985,-3.5005,-3.5004,-3.5044,-3.5027,-3.5065,-3.5081,-3.5099,-3.5138,-3.5205,-3.5251,-3.5314,-3.5458,-3.5465,-3.5525,-3.5545,-3.5562,-3.5578,-3.5655,-3.5682,-3.5395,-3.5395,-3.5395,0,0,-3.4854,-3.4877,-3.4925,-3.5006,-3.5033,-3.5109,-3.5018,-3.5103,-3.5159,-3.5094,-3.5204,-3.5218,-3.526,-3.539,-3.5448,-3.5408,-3.5658,-3.5577,-3.559,-3.5597,-3.567,-3.5697,-3.5721,-3.5403,-3.5402,-3.5401,0,0,-3.5036,-3.5061,-3.5162,-3.5191,-3.5233,-3.5231,-3.5255,-3.5288,-3.5294,-3.5404,-3.5356,-3.5422,-3.5539,-3.5571,-3.5603,-3.5795,-3.5756,-3.5816,-3.5922,-3.5998,-3.602,-3.604,-3.6109,-3.6134,-3.5831,-3.5831,-3.5831,0,-3.5129,-3.5242,-3.5219,-3.5306,-3.5343,-3.5286,-3.5388,-3.5417,-3.5479,-3.5505,-3.5458,-3.5603,-3.5627,-3.5764,-3.5811,-3.5838,-3.5865,-3.5812,-3.6019,-3.6039,-3.6057,-3.6123,-3.6149,-3.5838,-3.5837,-3.5837,-3.5836,0,-3.5354,-3.5433,-3.5509,-3.5569,-3.5614,-3.5708,-3.5699,-3.5747,-3.5726,-3.5729,-3.584,-3.5867,-3.5934,-3.5964,-3.5945,-3.6099,-3.6072,-3.6022,-3.5939,-3.6092,-3.6153,-3.6178,-3.5848,-3.5846,-3.5844,-3.5842,0,0,-3.5604,-3.5648,-3.5677,-3.5703,-3.5744,-3.5805,-3.5896,-3.5961,-3.6003,-3.6046,-3.6122,-3.6221,-3.6175,-3.6211,-3.6193,-3.6259,-3.641,-3.6201,-3.6202,-3.624,-3.6582,-3.662,-3.6649,-3.6384,-3.6388,-3.6392,-3.6578,0,-3.5789,-3.5948,-3.5928,-3.608,-3.6153,-3.6098,-3.6178,-3.6212,-3.6216,-3.6278,-3.6282,-3.6353,-3.6287,-3.6308,-3.6371,-3.6379,-3.6479,-3.6365,-3.6455,-3.6459,-3.6448,-3.6681,-3.6722,-3.6897,-3.6602,-3.6606,-3.6609,0,-3.6026,-3.6077,-3.6237,-3.6266,-3.6295,-3.6367,-3.6424,-3.6484,-3.652,-3.6519,-3.6558,-3.6528,-3.6619,-3.6533,-3.6658,-3.6581,-3.6616,-3.6625,-3.6631,-3.6641,-3.6545,-3.6698,-3.6952,-3.6979,-3.6646,-3.6643,-3.6641,0,-3.6194,-3.6302,-3.6411,-3.6435,-3.6472,-3.6523,-3.6541,-3.6572,-3.6612,-3.6662,-3.6688,-3.6747,-3.6781,-3.6828,-3.6815,-3.6753,-3.6943,-3.6855,-3.6944,-3.6945,-3.6989,-3.6987,-3.7254,-3.7009,-3.7009,-3.7008,-3.7008,0,-3.6403,-3.6503,-3.6487,-3.6555,-3.6664,-3.664,-3.675,-3.676,-3.6788,-3.6857,-3.6813,-3.6878,-3.6856,-3.6919,-3.6909,-3.7014,-3.7029,-3.7031,-3.7028,-3.7036,-3.7036,-3.706,-3.7048,-3.7015,-3.7014,-3.7012,-3.7011,0,-3.6611,-3.6604,-3.6719,-3.6744,-3.6752,-3.6832,-3.6852,-3.6916,-3.6915,-3.7002,-3.7021,-3.7021,-3.7093,-3.7084,-3.7165,-3.7158,-3.7289,-3.727,-3.7277,-3.7274,-3.7364,-3.7356,-3.7657,-3.7696,-3.7425,-3.7428,-3.743,0,-3.6746,-3.6821,-3.6853,-3.6895,-3.6916,-3.6985,-3.7025,-3.7004,-3.7047,-3.7093,-3.7151,-3.7219,-3.7273,-3.739,-3.7398,-3.7459,-3.7442,-3.7543,-3.7451,-3.7457,-3.7445,-3.7441,-3.7449,-3.7562,-3.7565,-3.7568,-3.757,0,-3.6987,-3.6979,-3.7038,-3.7097,-3.7145,-3.719,-3.723,-3.7267,-3.7249,-3.73,-3.7374,-3.7415,-3.7497,-3.7565,-3.7622,-3.764,-3.7603,-3.7598,-3.7622,-3.7633,-3.7634,-3.7635,-3.7328,-3.7592,-3.759,-3.7588,-3.7587,-3.7586,-3.7163,-3.7227,-3.7259,-3.7326,-3.7354,-3.7392,-3.7453,-3.7459,-3.752,-3.7584,-3.7567,-3.765,-3.7683,-3.7756,-3.7779,-3.7843,-3.7807,-3.7841,-3.785,-3.786,-3.7871,-3.7622,-3.7854,-3.7853,-3.7852,-3.7852,-3.7851,0,-3.7402,-3.7419,-3.7481,-3.7539,-3.7591,-3.755,-3.7592,-3.7639,-3.7712,-3.7746,-3.7799,-3.7882,-3.7948,-3.7959,-3.8021,-3.807,-3.8055,-3.8087,-3.8084,-3.8089,-3.79,-3.7874,-3.8099,-3.8099,-3.8099,-3.8099,-3.8099,-3.8099,-3.7533,-3.7639,-3.7635,-3.7754,-3.777,-3.7851,-3.7879,-3.7913,-3.794,-3.8035,-3.8089,-3.8096,-3.812,-3.8183,-3.8241,-3.8243,-3.8268,-3.8308,-3.8303,-3.8127,-3.8102,-3.8079,-3.8054,-3.8313,-3.8314,-3.8487,-3.8488,-3.849]},{"header":{"parameterUnit":"m.s-1","parameterCategory":1,"la1":30.2991,"la2":30.254,"lo1":-89.0895,"lo2":-89.0444,"dy":0.0017,"dx":0.0017,"nx":28,"ny":28,"refTime":"2025-12-14T09:00:00:Z","depth":0,"parameterNumber":3,"parameterNumberName":"V-component_of_WINDS"},"data":[0,0,0,0,0,0,0,0,0,0,0,0,0,0,0,0,0,0,0,0,0,0,0,0,0,0,0,0,0,0,0,0,0,0,0,0,0,0,0,0,0,0,0,0,0,0,0,0,0,0,0,0,0,0,0,0,0,0,-8.2795,-8.2796,0,-8.29,-8.2901,-8.2903,-8.279,-8.2786,-8.2782,-8.2778,-8.288,-8.2886,-8.2893,0,0,0,0,0,0,0,0,0,0,0,0,0,-8.2488,-8.2494,-8.2794,-8.2796,-8.2797,-8.29,-8.2901,-8.2903,-8.2791,-8.2786,-8.2781,-8.2776,-8.2878,-8.2886,-8.2894,0,0,0,0,0,0,0,0,0,0,0,0,0,-8.261,-8.2496,-8.2794,-8.2754,-8.2751,-8.29,-8.2902,-8.2903,-8.2792,-8.2786,-8.2779,-8.2773,-8.2875,-8.2885,-8.2895,-8.3086,0,0,-8.2926,-8.293,0,0,0,0,0,0,0,0,-8.2603,-8.2622,-8.2759,-8.2757,-8.2754,-8.2826,-8.2831,-8.2964,-8.2794,-8.2777,-8.2778,-8.277,-8.2867,-8.2877,-8.2911,-8.3091,-8.3095,-8.2927,-8.2933,-8.2937,-8.294,0,0,0,0,0,0,0,-8.2595,-8.2616,-8.2836,-8.2761,-8.2758,-8.2728,-8.2738,-8.2856,-8.2856,-8.2778,-8.277,-8.2784,-8.2864,-8.2901,-8.2912,-8.3097,-8.2926,-8.2935,-8.2942,-8.2945,-8.3437,-8.3443,0,0,0,0,0,0,-8.2592,-8.261,-8.2833,-8.2839,-8.2662,-8.2739,-8.275,-8.2809,-8.2855,-8.2856,-8.279,-8.2778,-8.2887,-8.2901,-8.2916,-8.3141,-8.2937,-8.2946,-8.2952,-8.343,-8.3438,-8.3446,0,0,0,0,0,0,-8.2586,-8.2613,-8.2828,-8.2723,-8.2748,-8.2751,-8.2818,-8.2815,-8.2852,-8.2864,-8.2863,-8.2828,-8.2883,-8.2901,-8.3045,-8.3143,-8.2951,-8.296,-8.3421,-8.3432,-8.3442,-8.3595,0,0,0,0,0,0,-8.2578,-8.2612,-8.2686,-8.2725,-8.2754,-8.2959,-8.2824,-8.2821,-8.287,-8.2857,-8.29,-8.29,-8.2879,-8.303,-8.3055,-8.3154,-8.2968,-8.3413,-8.3426,-8.3439,-8.3581,-8.361,-8.3634,0,0,0,0,0,-8.2567,-8.2724,-8.2691,-8.2718,-8.2848,-8.2964,-8.298,-8.2955,-8.2879,-8.2952,-8.296,-8.2899,-8.3129,-8.3046,-8.3072,-8.3176,-8.3406,-8.3422,-8.3438,-8.357,-8.3604,-8.3633,0,0,0,0,0,0,-8.2695,-8.2729,-8.2692,-8.2867,-8.2914,-8.2945,-8.3038,-8.2992,-8.306,-8.3045,-8.3008,-8.3018,-8.317,-8.3187,-8.3094,-8.3362,-8.3255,-8.3276,-8.3346,-8.3379,-8.3404,-8.3397,-8.2976,0,0,0,0,0,-8.2744,-8.2838,-8.2862,-8.3014,-8.3039,-8.3035,-8.3085,-8.3061,-8.3107,-8.3126,-8.3143,-8.3189,-8.3271,-8.3326,-8.3402,-8.3583,-8.3589,-8.3667,-8.3693,-8.3715,-8.3734,-8.3829,-8.3863,-8.3497,-8.3497,-8.3497,0,0,-8.2845,-8.2875,-8.2937,-8.304,-8.3074,-8.317,-8.3052,-8.3159,-8.3229,-8.3141,-8.3278,-8.3292,-8.334,-8.3503,-8.3575,-8.3522,-8.3836,-8.3735,-8.3752,-8.3759,-8.3849,-8.3883,-8.3914,-8.3508,-8.3506,-8.3504,0,0,-8.3079,-8.3112,-8.3242,-8.3278,-8.3331,-8.3327,-8.3358,-8.3397,-8.3403,-8.354,-8.3476,-8.3557,-8.37,-8.3736,-8.3773,-8.4019,-8.3965,-8.4045,-8.4182,-8.4275,-8.4304,-8.4329,-8.4415,-8.4447,-8.4064,-8.4064,-8.4065,0,-8.3198,-8.3342,-8.3314,-8.3425,-8.3471,-8.3398,-8.3527,-8.3563,-8.3637,-8.367,-8.3609,-8.3786,-8.3813,-8.3982,-8.4042,-8.4075,-8.4107,-8.404,-8.4302,-8.4327,-8.435,-8.4432,-8.4465,-8.4074,-8.4073,-8.4072,-8.4071,0,-8.3485,-8.3586,-8.3683,-8.3759,-8.3816,-8.3936,-8.3923,-8.3984,-8.3954,-8.3956,-8.4094,-8.4124,-8.4205,-8.4243,-8.4215,-8.4408,-8.4373,-8.4308,-8.4199,-8.4395,-8.4471,-8.4502,-8.4087,-8.4084,-8.4081,-8.4079,0,0,-8.3802,-8.3861,-8.3897,-8.3929,-8.3982,-8.4058,-8.4173,-8.4253,-8.4305,-8.4358,-8.4452,-8.4574,-8.4514,-8.4557,-8.4532,-8.4614,-8.4804,-8.4538,-8.4538,-8.4585,-8.5016,-8.5064,-8.5101,-8.4769,-8.4775,-8.4779,-8.5012,0,-8.4036,-8.4239,-8.4216,-8.4408,-8.4499,-8.443,-8.453,-8.4572,-8.4576,-8.4651,-8.4654,-8.4741,-8.4656,-8.4681,-8.4759,-8.4765,-8.489,-8.4748,-8.4854,-8.4858,-8.4843,-8.5141,-8.5193,-8.5411,-8.5042,-8.5047,-8.505,0,-8.4337,-8.4403,-8.4605,-8.4642,-8.4679,-8.477,-8.484,-8.4915,-8.4959,-8.4956,-8.5003,-8.4963,-8.5076,-8.4965,-8.5118,-8.5022,-8.5064,-8.5073,-8.5081,-8.5089,-8.4966,-8.5156,-8.548,-8.5512,-8.5097,-8.5093,-8.509,0,-8.4547,-8.4685,-8.4824,-8.4854,-8.4901,-8.4966,-8.4988,-8.5026,-8.5075,-8.5136,-8.5167,-8.524,-8.528,-8.5336,-8.5315,-8.5237,-8.5472,-8.536,-8.547,-8.5471,-8.5523,-8.552,-8.5856,-8.5552,-8.5551,-8.555,-8.555,0,-8.481,-8.4936,-8.4919,-8.5004,-8.5142,-8.5113,-8.5249,-8.5262,-8.5297,-8.5381,-8.5325,-8.5404,-8.5373,-8.545,-8.5435,-8.5563,-8.5581,-8.558,-8.5574,-8.5585,-8.5585,-8.5611,-8.5595,-8.5559,-8.5557,-8.5556,-8.5554,0,-8.5068,-8.5062,-8.5208,-8.524,-8.5251,-8.5351,-8.5378,-8.5456,-8.5455,-8.5563,-8.5586,-8.5584,-8.5672,-8.5657,-8.5754,-8.5743,-8.5903,-8.5879,-8.5889,-8.5883,-8.5994,-8.5983,-8.6358,-8.6405,-8.6071,-8.6075,-8.6077,0,-8.5236,-8.5331,-8.5374,-8.5428,-8.5455,-8.5542,-8.5592,-8.5566,-8.562,-8.5677,-8.5748,-8.5831,-8.5896,-8.6039,-8.6044,-8.6117,-8.6094,-8.622,-8.6104,-8.6112,-8.6094,-8.6089,-8.6097,-8.6243,-8.6247,-8.625,-8.6253,0,-8.5534,-8.5526,-8.5602,-8.5677,-8.5739,-8.5796,-8.5847,-8.5893,-8.5871,-8.5934,-8.6024,-8.6075,-8.6174,-8.6256,-8.6324,-8.6343,-8.6294,-8.6289,-8.6318,-8.633,-8.6331,-8.633,-8.5951,-8.628,-8.6278,-8.6276,-8.6274,-8.6273,-8.5751,-8.5832,-8.5875,-8.5961,-8.5997,-8.6046,-8.6121,-8.613,-8.6205,-8.6285,-8.6264,-8.6366,-8.6405,-8.6491,-8.6519,-8.6595,-8.6548,-8.6591,-8.6602,-8.6612,-8.6625,-8.632,-8.6608,-8.6607,-8.6606,-8.6606,-8.6605,0,-8.6046,-8.607,-8.6149,-8.6223,-8.629,-8.624,-8.6293,-8.6351,-8.6442,-8.6484,-8.6549,-8.6651,-8.6731,-8.6743,-8.6817,-8.6876,-8.6855,-8.6896,-8.6891,-8.6896,-8.6664,-8.6631,-8.6912,-8.6912,-8.6912,-8.6912,-8.6912,-8.6912,-8.6207,-8.6341,-8.6338,-8.6488,-8.651,-8.6611,-8.6645,-8.6689,-8.6722,-8.684,-8.6906,-8.6914,-8.6943,-8.7018,-8.7088,-8.7089,-8.7118,-8.7168,-8.716,-8.6943,-8.6912,-8.6883,-8.6852,-8.7175,-8.7175,-8.7386,-8.7388,-8.7389]}]]